Volver al catálogo

COSMOS 2251 DEB

ActivoLEO
NORAD 34797·DEBRIS·🇷🇺 Russia

Lanzado Jun 16, 1993 desde Plesetsk Cosmodrome

Loading…

Próximos Pases (próximas 24 horas)

TLE

EnvejeciendoSource: Space-Track

Época: Sep 12, 2026, 09:52 UTC

1 34797U 93036ABA 26255.41149353  .00001056  00000-0  29972-3 0  9995
2 34797  73.9747 308.8840 0072131 355.7012   4.3516 14.45227118913666

Sigue COSMOS 2251 DEB en tiempo real con AllMySat

Download on the App Store